TimeEST,TemperatureF,Dew PointF,Humidity,Sea Level PressureIn,VisibilityMPH,Wind Direction,Wind SpeedMPH,Gust SpeedMPH,PrecipitationIn,Events,Conditions,WindDirDegrees,DateUTC
12:15 AM,40.1,31.1,70,30.06,10.0,Calm,Calm,-,N/A,,Clear,0,2014-02-02 05:15:00
12:35 AM,39.0,30.7,72,30.06,10.0,Calm,Calm,-,N/A,,Clear,0,2014-02-02 05:35:00
12:55 AM,36.7,30.2,77,30.06,10.0,Calm,Calm,-,N/A,,Clear,0,2014-02-02 05:55:00
1:15 AM,37.6,30.9,77,30.06,10.0,Calm,Calm,-,N/A,,Clear,0,2014-02-02 06:15:00
1:35 AM,34.7,30.2,84,30.06,10.0,North,3.5,-,N/A,,Clear,350,2014-02-02 06:35:00
1:55 AM,37.2,30.7,77,30.06,10.0,Calm,Calm,-,N/A,,Clear,0,2014-02-02 06:55:00
2:15 AM,34.9,30.2,83,30.06,10.0,Calm,Calm,-,N/A,,Clear,0,2014-02-02 07:15:00
2:35 AM,35.1,30.7,84,30.06,10.0,Calm,Calm,-,N/A,,Clear,0,2014-02-02 07:35:00
2:55 AM,34.7,31.1,87,30.06,7.0,Calm,Calm,-,N/A,,Clear,0,2014-02-02 07:55:00
3:15 AM,37.8,32.0,80,30.06,10.0,Calm,Calm,-,N/A,,Clear,0,2014-02-02 08:15:00
3:35 AM,34.7,30.2,84,30.06,10.0,Calm,Calm,-,N/A,,Clear,0,2014-02-02 08:35:00
3:55 AM,36.7,32.2,84,30.06,10.0,Calm,Calm,-,N/A,,Clear,0,2014-02-02 08:55:00
4:15 AM,35.4,32.0,87,30.06,10.0,Calm,Calm,-,N/A,,Clear,0,2014-02-02 09:15:00
4:35 AM,35.6,32.5,89,30.05,10.0,Calm,Calm,-,N/A,,Clear,0,2014-02-02 09:35:00
4:55 AM,33.8,31.8,92,30.03,10.0,Calm,Calm,-,N/A,,Clear,0,2014-02-02 09:55:00
5:15 AM,35.1,32.4,90,30.02,10.0,Calm,Calm,-,N/A,,Clear,0,2014-02-02 10:15:00
5:35 AM,33.6,32.0,94,30.02,10.0,Calm,Calm,-,N/A,,Clear,0,2014-02-02 10:35:00
5:55 AM,34.2,32.5,94,30.03,10.0,Calm,Calm,-,N/A,,Clear,0,2014-02-02 10:55:00
6:15 AM,34.0,32.2,93,30.03,10.0,Calm,Calm,-,N/A,,Clear,0,2014-02-02 11:15:00
6:35 AM,33.4,32.2,95,30.03,10.0,Calm,Calm,-,N/A,,Clear,0,2014-02-02 11:35:00
6:55 AM,34.5,33.8,97,30.02,10.0,ESE,3.5,-,N/A,,Clear,110,2014-02-02 11:55:00
7:15 AM,34.5,34.0,98,30.03,7.0,Calm,Calm,-,N/A,,Clear,0,2014-02-02 12:15:00
7:35 AM,35.1,34.9,99,30.03,7.0,Calm,Calm,-,N/A,,Clear,0,2014-02-02 12:35:00
7:55 AM,35.6,35.4,99,30.05,7.0,Calm,Calm,-,N/A,,Clear,0,2014-02-02 12:55:00
8:15 AM,35.6,35.1,98,30.06,10.0,East,3.5,-,N/A,,Scattered Clouds,100,2014-02-02 13:15:00
8:35 AM,38.1,37.8,99,30.06,10.0,Calm,Calm,-,N/A,,Overcast,0,2014-02-02 13:35:00
8:55 AM,40.5,39.6,97,30.06,10.0,East,3.5,-,N/A,,Overcast,80,2014-02-02 13:55:00
9:15 AM,41.7,40.1,94,30.07,10.0,Calm,Calm,-,N/A,,Scattered Clouds,0,2014-02-02 14:15:00
9:35 AM,44.1,41.9,92,30.08,10.0,South,3.5,-,N/A,,Mostly Cloudy,170,2014-02-02 14:35:00
9:55 AM,45.7,41.4,85,30.08,10.0,Calm,Calm,-,N/A,,Mostly Cloudy,0,2014-02-02 14:55:00
10:15 AM,49.1,42.8,79,30.09,10.0,Calm,Calm,-,N/A,,Mostly Cloudy,0,2014-02-02 15:15:00
10:35 AM,50.9,43.0,74,30.09,10.0,Calm,Calm,-,N/A,,Overcast,0,2014-02-02 15:35:00
10:55 AM,52.0,43.3,72,30.09,10.0,WSW,3.5,-,N/A,,Overcast,250,2014-02-02 15:55:00
11:15 AM,52.9,43.7,71,30.09,10.0,West,4.6,-,N/A,,Overcast,260,2014-02-02 16:15:00
11:35 AM,52.7,43.9,72,30.08,10.0,WSW,3.5,-,N/A,,Overcast,250,2014-02-02 16:35:00
11:55 AM,52.7,44.4,73,30.09,10.0,NW,3.5,-,N/A,,Overcast,310,2014-02-02 16:55:00
12:15 PM,52.0,45.7,79,30.09,10.0,West,4.6,-,N/A,Rain,Light Rain,280,2014-02-02 17:15:00
12:35 PM,50.9,47.1,87,30.09,4.0,West,4.6,-,N/A,Rain,Light Rain,280,2014-02-02 17:35:00
12:55 PM,49.6,48.2,95,30.08,4.0,WSW,4.6,-,N/A,,Light Drizzle,250,2014-02-02 17:55:00
1:15 PM,48.6,48.0,98,30.07,5.0,WSW,5.8,-,N/A,Rain,Light Rain,240,2014-02-02 18:15:00
1:35 PM,48.2,48.0,99,30.06,4.0,SW,8.1,-,N/A,Rain,Light Rain,220,2014-02-02 18:35:00
1:55 PM,47.5,47.5,100,30.05,4.0,SW,5.8,-,N/A,,Overcast,220,2014-02-02 18:55:00
2:15 PM,47.7,47.7,100,30.05,5.0,West,5.8,-,N/A,,Overcast,260,2014-02-02 19:15:00
2:35 PM,48.2,48.2,100,30.04,5.0,West,6.9,-,N/A,,Overcast,260,2014-02-02 19:35:00
2:55 PM,48.2,48.2,100,30.05,5.0,West,5.8,-,N/A,,Overcast,280,2014-02-02 19:55:00
3:15 PM,47.7,47.7,100,30.05,4.0,West,4.6,-,N/A,,Overcast,270,2014-02-02 20:15:00
3:35 PM,47.7,47.7,100,30.04,4.0,West,4.6,-,N/A,,Overcast,270,2014-02-02 20:35:00
3:55 PM,47.5,47.5,100,30.05,4.0,NW,3.5,-,N/A,,Overcast,320,2014-02-02 20:55:00
4:15 PM,47.7,47.7,100,30.05,4.0,Calm,Calm,-,N/A,,Overcast,0,2014-02-02 21:15:00
4:35 PM,47.8,47.8,100,30.05,3.0,Calm,Calm,-,N/A,,Overcast,0,2014-02-02 21:35:00
4:55 PM,47.5,47.5,100,30.05,2.5,Calm,Calm,-,N/A,,Overcast,0,2014-02-02 21:55:00
5:15 PM,46.9,46.9,100,30.05,2.0,Calm,Calm,-,N/A,,Overcast,0,2014-02-02 22:15:00
5:35 PM,46.9,46.9,100,30.04,2.5,SE,3.5,-,N/A,,Overcast,130,2014-02-02 22:35:00
5:55 PM,46.8,46.8,100,30.05,3.0,Calm,Calm,-,N/A,,Overcast,0,2014-02-02 22:55:00
6:15 PM,46.4,46.4,100,30.04,2.5,Calm,Calm,-,N/A,,Overcast,0,2014-02-02 23:15:00
6:35 PM,46.6,46.6,100,30.04,2.5,Calm,Calm,-,N/A,,Overcast,0,2014-02-02 23:35:00
6:55 PM,46.4,46.4,100,30.03,2.0,ESE,5.8,-,N/A,,Overcast,110,2014-02-02 23:55:00
7:15 PM,46.4,46.4,100,30.02,0.5,East,3.5,-,N/A,Fog,Fog,80,2014-02-03 00:15:00
7:35 PM,45.7,45.7,100,30.01,0.2,ESE,6.9,-,N/A,Fog,Fog,110,2014-02-03 00:35:00
7:55 PM,46.4,46.4,100,30.02,0.2,Calm,Calm,-,N/A,Fog,Fog,0,2014-02-03 00:55:00
8:15 PM,46.4,46.4,100,29.99,0.5,East,5.8,-,N/A,Fog,Fog,80,2014-02-03 01:15:00
8:35 PM,47.3,47.3,100,29.99,1.0,Calm,Calm,-,N/A,,Overcast,0,2014-02-03 01:35:00
8:55 PM,46.9,46.9,100,29.98,1.0,ENE,5.8,-,N/A,,Overcast,60,2014-02-03 01:55:00
9:15 PM,46.6,46.6,100,29.98,1.0,ESE,5.8,-,N/A,,Overcast,110,2014-02-03 02:15:00
9:35 PM,46.6,46.6,100,29.97,0.5,East,6.9,-,N/A,Fog,Fog,90,2014-02-03 02:35:00
9:55 PM,46.4,46.4,100,29.96,0.5,East,6.9,-,N/A,Fog,Fog,80,2014-02-03 02:55:00
10:15 PM,46.4,46.4,100,29.95,0.8,East,4.6,-,N/A,,Overcast,90,2014-02-03 03:15:00
10:35 PM,46.8,46.8,100,29.95,2.5,ENE,3.5,-,0.01,Rain,Rain,70,2014-02-03 03:35:00
10:55 PM,46.4,46.4,100,29.95,1.5,SE,3.5,-,0.01,,Overcast,130,2014-02-03 03:55:00
11:15 PM,46.4,46.4,100,29.95,1.8,North,3.5,-,N/A,,Overcast,360,2014-02-03 04:15:00
11:35 PM,47.3,47.3,100,29.94,5.0,Calm,Calm,-,0.01,Rain,Rain,0,2014-02-03 04:35:00
11:55 PM,47.3,47.3,100,29.94,3.0,Calm,Calm,-,0.03,Rain,Rain,0,2014-02-03 04:55:00